Regional Weather Roundup
Issued by NWS

Home | Current Version | Previous Version | Graphics & Text | Print | Product List | Glossary On
Versions: 1 2 3 4 5 6 7 8 9 10 11 12 13 14 15 16 17 18 19 20 21 22 23 24 25 26 27 28 29 30 31 32 33 34 35 36 37 38 39 40 41 42 43 44 45 46 47 48 49 50
000
ASUS43 KLOT 282104
RWRIL

ILLINOIS REGIONAL WEATHER ROUNDUP
NATIONAL WEATHER SERVICE CHICAGO/ROMEOVILLE IL
400 PM CDT SUN MAY 28 2017

NOTE: "FAIR" INDICATES FEW OR NO CLOUDS BELOW 12,000 FEET WITH NO
SIGNIFICANT WEATHER AND/OR OBSTRUCTIONS TO VISIBILITY.

* THESE STATIONS ARE NOT UNDER NWS QUALITY CONTROL. THEY ALSO MAY NOT
  REPORT WEATHER SUCH AS PRECIPITATION OR FOG.

ILZ001-002-007-009-015-016-024-282200-
NORTHWEST ILLINOIS

CITY           SKY/WX    TMP DP  RH WIND       PRES   REMARKS
MOLINE         PTSUNNY   79  55  43 NW17      29.77S
STERLING*      SUNNY     77  57  50 W22       29.75F
SAVANNA*       SUNNY     74  51  43 W12G17    29.75F
$$

ILZ003-004-008-010-011-017-018-282200-
NORTH CENTRAL ILLINOIS

CITY           SKY/WX    TMP DP  RH WIND       PRES   REMARKS
ROCKFORD       PTSUNNY   75  54  47 W12       29.75F
FREEPORT*      CLOUDY    74  56  53 W16G24    29.76S
ROCHELLE*      PTSUNNY   74  54  50 W16       29.76F
DE KALB*       SUNNY     74  55  51 W16G24    29.76S
PERU*          SUNNY     75  52  44 W14G20    29.77S
$$

ILZ005-006-012>014-019>023-282200-
NORTHEAST ILLINOIS

CITY           SKY/WX    TMP DP  RH WIND       PRES   REMARKS
CHICAGO-OHARE  MOSUNNY   77  53  43 NW13G22   29.72S
CHICAGO-MIDWAY MOSUNNY   71  60  68 E6        29.72F
AURORA         SUNNY     76  53  44 W20       29.75S
LANSING*       MOSUNNY   70  61  73 N6        29.73S
JOLIET*        SUNNY     77  54  45 W7        29.74S
WAUKEGAN       MOSUNNY   74  54  49 NW13G20   29.72F
DUPAGE AIRPORT SUNNY     75  54  47 NW17      29.73F
KANKAKEE*      MOSUNNY   78  56  46 NW12G20   29.74R
WHEELING       SUNNY     74  54  49 NW9       29.73F
MORRIS*        SUNNY     76  53  44 NW18      29.73S
ROMEOVILLE*    SUNNY     76  57  52 W15       29.74S
NORTHERLY ISL    N/A     59  53  80 NE3         N/A
$$

LMZ740>746-282200-
SOUTHERN LAKE MICHIGAN

STATION/POSITION SKY/WX   TEMP    WIND        PRES    VSBY  WAVE
                          AIR SEA DIR/SP/G                  HT/PER
                          (F)     (DEG/KT/KT) (MB)    (MI)  (FT/S)
SOUTHERN BUOY              53 49  300/  2/  4 1006.9          0
WILMETTE HARBOR            55 55  130/  2/  4   N/A           1
HARRISON CRIB              56     340/  3/  4   N/A
BURNHAM HARBOR             59      CALM  /  6   N/A
CALUMET HARBOR             60      30/  5/  7 1006.6F
BURNS HARBOR               57     320/  4/  8 1007.5R
MICHIGAN CITY              59     320/ 11/ 12   N/A
MICHIGAN CITY 6N           55 57  340/  4/  6   N/A           1
ST. JOSEPH                 58 60   10/  8/ 10 1006.5S         1/ 3
$$

ILZ025>027-034>036-040-047-049-050-058-095>099-282200-
WEST-CENTRAL ILLINOIS

CITY           SKY/WX    TMP DP  RH WIND       PRES   REMARKS
QUINCY         MOSUNNY   79  52  38 W12       29.83F
GALESBURG*     MOSUNNY   78  53  42 W16G25    29.79S
MACOMB*        MOSUNNY   77  51  40 W16G23    29.83S
JACKSONVILLE*  MOSUNNY   78  50  37 NW14G22   29.83S
PITTSFIELD*    MOSUNNY   79  54  42 W9        29.86R
$$

ILZ028>032-037-038-041>044-048-051>054-059>061-282200-
CENTRAL ILLINOIS

CITY           SKY/WX    TMP DP  RH WIND       PRES   REMARKS
PONTIAC        SUNNY     76  56  48 NW14G24   29.78R
BLOOMINGTON    MOSUNNY   77  55  46 NW16      29.80S
DECATUR        CLOUDY    78  56  46 W13       29.80R
PEORIA         MOSUNNY   76  52  43 NW8       29.79S
LACON*         MOSUNNY   76  52  42 W10G16    29.76F
LINCOLN*       MOSUNNY   80  56  44 NW7       29.80R HX  80
SPRINGFIELD    MOSUNNY   82  56  40 NW14G20   29.82R HX  82
TAYLORVILLE    PTSUNNY   78  56  47 NW14      29.82R
$$

ILZ033-039-045-046-055>057-062-063-282200-
EAST-CENTRAL ILLINOIS

CITY           SKY/WX    TMP DP  RH WIND       PRES   REMARKS
CHAMPAIGN      PTSUNNY   78  57  48 NW17G26   29.77R
MATTOON        PTSUNNY   77  61  57 W15G24    29.77S
PARIS*         CLOUDY    79  65  62 W16       29.76S HX  81
$$

ILZ079-100>102-282200-
SOUTHWEST ILLINOIS

CITY           SKY/WX    TMP DP  RH WIND       PRES   REMARKS
ALTON          MOSUNNY   77  57  50 W17       29.85S
BELLEVILLE     MOSUNNY   75  64  67 W9        29.86S
CAHOKIA*       PTSUNNY   78  61  55 W7        29.85R HX  80
SPARTA*        PTSUNNY   74  65  71 W8        29.87F
$$

ILZ064>066-069>071-074>076-080>082-084>086-088>090-092>094-282200-
SOUTH-CENTRAL ILLINOIS

CITY           SKY/WX    TMP DP  RH WIND       PRES   REMARKS
CARBONDALE     CLOUDY    74  65  73 W10       29.86R
CAIRO*         MOSUNNY   75  66  74 SW9       29.87S
EFFINGHAM*     PTSUNNY   76  67  72 SW12      29.82S
MARION         CLOUDY    75  68  78 NW7       29.87R
MT. VERNON       N/A     73  64  73 VRB5      29.85S
CENTRALIA*     PTSUNNY   76  66  71 W12       29.84S
SALEM*         MOSUNNY   76  64  65 W10G17    29.84S
$$

ILZ067-068-072-073-078-083-087-091-282200-
SOUTHEAST ILLINOIS

CITY           SKY/WX    TMP DP  RH WIND       PRES   REMARKS
LAWRENCEVILLE  PTSUNNY   77  64  64 W16       29.81R
FLORA*         CLOUDY    76  66  70 W8        29.83F
FAIRFIELD*     CLOUDY    71  65  80 W3        29.84S
HARRISBURG*    PTSUNNY   78  67  70 NW14G20   29.85R HX  80
ROBINSON*      MOSUNNY   77  64  63 SW16G23   29.79S
CARMI*         MOSUNNY   76  65  68 W22       29.84R
$$

ABBREVIATIONS USED IN REMARKS
   TC - TEMPERATURE IN CELSIUS
  WCI - WIND CHILL INDEX
   HX - HEAT INDEX
  VSB - VISIBILITY
$$




USA.gov is the U.S. government's official web portal to all federal, state and local government web resources and services.